Hourly Weather Bolshoy Prolom

Today, 30 July, Friday

Time Temperature Precipitation Wind Pressure Humidity
00:00 +21°C° 0 mm 1 mps 742 mmHg 82%
01:00 +20°C° 0 mm 1 mps 742 mmHg 84%
02:00 +19°C° 0 mm 2 mps 742 mmHg 86%
03:00 +19°C° 0 mm 2 mps 742 mmHg 87%
04:00 +20°C° 0 mm 1 mps 742 mmHg 85%
05:00 +21°C° 0 mm 1 mps 742 mmHg 82%
06:00 +22°C° 0 mm 1 mps 742 mmHg 80%
07:00 +24°C° 0 mm 2 mps 742 mmHg 72%
08:00 +26°C° 0 mm 2 mps 742 mmHg 64%
09:00 +28°C° 0 mm 2 mps 742 mmHg 57%
10:00 +29°C° 0 mm 3 mps 742 mmHg 51%
11:00 +31°C° 0 mm 3 mps 741 mmHg 46%
12:00 +33°C° 0 mm 3 mps 741 mmHg 41%
13:00 +31°C° 0.2 mm 3 mps 741 mmHg 46%
14:00 +29°C° 0.2 mm 3 mps 740 mmHg 52%
15:00 +28°C° 0.2 mm 4 mps 740 mmHg 57%
16:00 +26°C° 2.6 mm 3 mps 740 mmHg 69%
17:00 +24°C° 2.6 mm 2 mps 740 mmHg 80%
18:00 +21°C° 2.6 mm 2 mps 740 mmHg 92%
19:00 +21°C° 0.2 mm 2 mps 740 mmHg 93%
20:00 +20°C° 0.2 mm 2 mps 740 mmHg 94%
21:00 +20°C° 0.2 mm 2 mps 740 mmHg 95%
22:00 +20°C° 0 mm 2 mps 740 mmHg 95%
23:00 +20°C° 0 mm 3 mps 740 mmHg 95%

Tomorrow, 31 July, Saturday

Time Temperature Precipitation Wind Pressure Humidity
00:00 +20°C° 0 mm 3 mps 740 mmHg 96%
01:00 +19°C° 0 mm 3 mps 740 mmHg 96%
02:00 +19°C° 0 mm 3 mps 740 mmHg 96%
03:00 +19°C° 0 mm 3 mps 740 mmHg 97%
04:00 +19°C° 0 mm 3 mps 741 mmHg 95%
05:00 +19°C° 0 mm 3 mps 741 mmHg 94%
06:00 +19°C° 0 mm 3 mps 741 mmHg 92%
07:00 +20°C° 0 mm 4 mps 742 mmHg 81%
08:00 +22°C° 0 mm 4 mps 742 mmHg 70%
09:00 +23°C° 0 mm 5 mps 742 mmHg 60%
10:00 +26°C° 0 mm 6 mps 743 mmHg 53%
11:00 +27°C° 0 mm 6 mps 743 mmHg 46%
12:00 +28°C° 0 mm 7 mps 743 mmHg 39%
13:00 +29°C° 0 mm 7 mps 743 mmHg 38%
14:00 +29°C° 0 mm 7 mps 743 mmHg 36%
15:00 +30°C° 0 mm 6 mps 743 mmHg 34%
16:00 +29°C° 0 mm 6 mps 743 mmHg 37%
17:00 +28°C° 0 mm 5 mps 743 mmHg 40%
18:00 +28°C° 0 mm 5 mps 743 mmHg 43%
19:00 +26°C° 0 mm 4 mps 743 mmHg 49%
20:00 +24°C° 0 mm 3 mps 744 mmHg 55%
21:00 +21°C° 0 mm 2 mps 744 mmHg 62%
22:00 +20°C° 0 mm 2 mps 744 mmHg 63%
23:00 +20°C° 0 mm 2 mps 744 mmHg 64%

Day after tomorrow, 1 August, Sunday

Time Temperature Precipitation Wind Pressure Humidity
00:00 +19°C° 0 mm 2 mps 744 mmHg 65%
01:00 +19°C° 0 mm 2 mps 745 mmHg 67%
02:00 +18°C° 0 mm 2 mps 745 mmHg 69%
03:00 +18°C° 0 mm 2 mps 745 mmHg 70%
04:00 +18°C° 0 mm 2 mps 746 mmHg 70%
05:00 +18°C° 0 mm 2 mps 746 mmHg 70%
06:00 +19°C° 0 mm 2 mps 746 mmHg 70%
07:00 +21°C° 0 mm 2 mps 746 mmHg 63%
08:00 +24°C° 0 mm 3 mps 747 mmHg 56%
09:00 +26°C° 0 mm 3 mps 747 mmHg 49%
10:00 +27°C° 0 mm 3 mps 747 mmHg 45%
11:00 +29°C° 0 mm 3 mps 747 mmHg 40%
12:00 +30°C° 0 mm 3 mps 747 mmHg 36%
13:00 +31°C° 0 mm 3 mps 746 mmHg 35%
14:00 +33°C° 0 mm 3 mps 746 mmHg 33%
15:00 +34°C° 0 mm 3 mps 746 mmHg 32%
16:00 +33°C° 0 mm 3 mps 746 mmHg 34%
17:00 +33°C° 0 mm 3 mps 745 mmHg 37%
18:00 +31°C° 0 mm 3 mps 745 mmHg 39%
19:00 +30°C° 0 mm 3 mps 745 mmHg 41%
20:00 +28°C° 0 mm 3 mps 745 mmHg 44%
21:00 +27°C° 0 mm 4 mps 745 mmHg 46%
22:00 +26°C° 0 mm 3 mps 745 mmHg 47%
23:00 +26°C° 0 mm 3 mps 745 mmHg 48%

2 August, Monday

Time Temperature Precipitation Wind Pressure Humidity
00:00 +25°C° 0 mm 3 mps 745 mmHg 48%
01:00 +24°C° 0 mm 3 mps 745 mmHg 51%
02:00 +24°C° 0 mm 3 mps 745 mmHg 53%
03:00 +22°C° 0 mm 3 mps 745 mmHg 55%
04:00 +22°C° 0 mm 3 mps 745 mmHg 60%
05:00 +22°C° 0 mm 3 mps 745 mmHg 65%
06:00 +22°C° 0 mm 3 mps 745 mmHg 69%
07:00 +25°C° 0 mm 4 mps 745 mmHg 63%
08:00 +28°C° 0 mm 4 mps 745 mmHg 56%
09:00 +30°C° 0 mm 4 mps 745 mmHg 49%
10:00 +33°C° 0 mm 5 mps 744 mmHg 43%
11:00 +34°C° 0 mm 5 mps 744 mmHg 37%
12:00 +36°C° 0 mm 6 mps 744 mmHg 32%
13:00 +35°C° 0.1 mm 5 mps 743 mmHg 34%
14:00 +35°C° 0.1 mm 5 mps 743 mmHg 36%
15:00 +34°C° 0.1 mm 5 mps 742 mmHg 38%
16:00 +32°C° 0.4 mm 5 mps 742 mmHg 45%
17:00 +29°C° 0.4 mm 4 mps 742 mmHg 53%
18:00 +27°C° 0.4 mm 4 mps 741 mmHg 61%
19:00 +26°C° 0.1 mm 4 mps 741 mmHg 62%
20:00 +25°C° 0.1 mm 3 mps 741 mmHg 64%
21:00 +25°C° 0.1 mm 3 mps 742 mmHg 66%
22:00 +24°C° 0.1 mm 3 mps 742 mmHg 69%
23:00 +22°C° 0.1 mm 3 mps 742 mmHg 72%

3 August, Tuesday

Time Temperature Precipitation Wind Pressure Humidity
00:00 +21°C° 0.1 mm 3 mps 742 mmHg 76%
01:00 +21°C° 0.1 mm 3 mps 742 mmHg 79%
02:00 +21°C° 0.1 mm 3 mps 742 mmHg 82%
03:00 +20°C° 0.1 mm 3 mps 742 mmHg 85%
04:00 +21°C° 0 mm 4 mps 742 mmHg 84%
05:00 +21°C° 0 mm 4 mps 742 mmHg 84%
06:00 +21°C° 0 mm 4 mps 742 mmHg 84%
07:00 +21°C° 0 mm 3 mps 742 mmHg 83%
08:00 +22°C° 0 mm 3 mps 742 mmHg 82%
09:00 +22°C° 0 mm 3 mps 743 mmHg 80%
10:00 +22°C° 0.4 mm 3 mps 743 mmHg 81%
11:00 +22°C° 0.4 mm 3 mps 743 mmHg 82%
12:00 +22°C° 0.4 mm 3 mps 743 mmHg 83%
13:00 +22°C° 0.3 mm 3 mps 744 mmHg 81%
14:00 +22°C° 0.3 mm 3 mps 744 mmHg 78%
15:00 +24°C° 0.3 mm 2 mps 744 mmHg 76%
16:00 +24°C° 0.4 mm 2 mps 744 mmHg 76%
17:00 +24°C° 0.4 mm 2 mps 744 mmHg 76%
18:00 +23°C° 0.4 mm 2 mps 744 mmHg 76%
19:00 +21°C° 0.1 mm 2 mps 745 mmHg 78%
20:00 +20°C° 0.1 mm 2 mps 745 mmHg 79%
21:00 +19°C° 0.1 mm 2 mps 745 mmHg 81%
22:00 +19°C° 0 mm 2 mps 745 mmHg 81%
23:00 +18°C° 0 mm 2 mps 745 mmHg 82%

4 August, Wednesday

Time Temperature Precipitation Wind Pressure Humidity
00:00 +18°C° 0 mm 2 mps 745 mmHg 83%
01:00 +17°C° 0 mm 2 mps 746 mmHg 84%
02:00 +17°C° 0 mm 2 mps 746 mmHg 85%
03:00 +17°C° 0 mm 2 mps 746 mmHg 86%
04:00 +17°C° 0 mm 2 mps 746 mmHg 86%
05:00 +17°C° 0 mm 2 mps 747 mmHg 86%
06:00 +17°C° 0 mm 2 mps 747 mmHg 86%
07:00 +19°C° 0 mm 2 mps 747 mmHg 76%
08:00 +21°C° 0 mm 2 mps 747 mmHg 67%
09:00 +24°C° 0 mm 2 mps 748 mmHg 58%
10:00 +25°C° 0 mm 3 mps 748 mmHg 52%
11:00 +26°C° 0 mm 3 mps 748 mmHg 46%
12:00 +28°C° 0 mm 3 mps 748 mmHg 40%
13:00 +28°C° 0 mm 3 mps 748 mmHg 38%
14:00 +28°C° 0 mm 3 mps 748 mmHg 36%
15:00 +28°C° 0 mm 3 mps 748 mmHg 35%
16:00 +27°C° 0 mm 3 mps 748 mmHg 39%
17:00 +26°C° 0 mm 3 mps 748 mmHg 43%
18:00 +25°C° 0 mm 3 mps 748 mmHg 47%
19:00 +24°C° 0 mm 3 mps 748 mmHg 52%
20:00 +22°C° 0 mm 3 mps 749 mmHg 56%
21:00 +20°C° 0 mm 3 mps 749 mmHg 60%
22:00 +20°C° 0 mm 2 mps 749 mmHg 63%
23:00 +19°C° 0 mm 2 mps 749 mmHg 65%
Show more

We Need Your Consent

Meteoprog and our Service Providers may store and access personal data such as cookies, device identifiers or other similar technologies on your device and process such data to personalise content and ads, as well as provide social media features and to analyse the traffic.

  • Store and/or access information on your device

    Cookies, device identifiers or other information can be stored or accessed on your device for the purposes indicated above.

  • Personalised ads and content, ad and content measurement, audience insights, and products development

    Ads and content can be personalised based on a profile. More data can be added to better personalise ads and content. Ad and content performance can be measured. Insights about the audience who saw the ads and content can be derived. Such data can be used to develop or improve user’s experience, systems and software.

By clicking ‘I Agree’ you will allow the use of indicated cookies, device identifiers, web beacons or other similar technologies. Your settings can be changed in the browser on your device.

For certain purposes, legitimate interests may be relied on, rather than consent. You can read more about this in our Privacy and Cookie Policy.